This demonstration page uses our WeatherBlox Daily Observations layout. Learn more.

Left ArrowRight Arrow

41.55636, -103.73856

Hourly Observations for October 21, 2018

Temp ( °F °C ) Dew Point ( °F °C ) Humidity (%) Winds ( mph kmh ) Pressure ( in mb ) Visibility ( mi km ) Precip ( " mm )
12:58 am 00:58 Clear 42 5.4 28 -2.1 59 59 W 8 13 30.19 1022 10 16 N/A
1:58 am 01:58 Clear 43 5.9 28 -2.2 56 56 W 9 15 30.16 1021 10 16 N/A
2:58 am 02:58 Clear 42 5.5 28 -2.3 58 58 W 8 13 30.15 1021 10 16 N/A
3:58 am 03:58 Clear 39 4 28 -2.2 64 64 W 8 13 30.14 1021 10 16 N/A
4:58 am 04:58 Clear 42 5.8 29 -1.6 59 59 WNW 12 19 30.14 1021 10 16 N/A
5:58 am 05:58 Clear 38 3.5 29 -1.5 70 70 WNW 8 13 30.17 1022 10 16 N/A
6:58 am 06:58 Clear 42 5.4 29 -1.5 61 61 WNW 12 19 30.20 1023 10 16 N/A
7:58 am 07:58 Sunny 46 7.7 30 -1.3 53 53 WNW 9 15 30.18 1022 10 16 N/A
8:58 am 08:58 Sunny 58 14.3 30 -1.1 35 35 W 8 13 30.14 1021 10 16 N/A
9:58 am 09:58 Sunny 62 16.8 31 -0.6 31 31 WNW 10 17 30.13 1020 10 16 N/A
10:58 am 10:58 Sunny 66 18.9 31 -0.8 27 27 NW 20 31 30.11 1020 10 16 N/A
11:58 am 11:58 Sunny 70 21.3 31 -0.5 23 23 NNW 17 28 30.09 1019 10 16 N/A
12:58 pm 12:58 Sunny 71 21.9 28 -2.4 20 20 N 15 24 30.04 1017 10 16 N/A
1:58 pm 13:58 Sunny 71 21.9 27 -3 19 19 NE 13 20 30.02 1017 10 16 N/A
2:58 pm 14:58 Sunny 71 21.8 26 -3.2 19 19 N 13 20 30.02 1017 10 16 N/A
3:58 pm 15:58 Sunny 71 21.9 24 -4.7 16 16 N 12 19 30.02 1017 10 16 N/A
4:58 pm 16:58 Sunny 70 20.9 24 -4.6 18 18 N 9 15 30.02 1017 10 16 N/A
5:58 pm 17:58 Sunny 59 15 25 -4 27 27 NE 8 13 30.07 1018 10 16 N/A
6:58 pm 18:58 Clear 56 13.5 25 -3.9 30 30 ENE 7 11 30.06 1018 10 16 N/A
7:58 pm 19:58 Hazy 51 10.6 32 -0.2 47 47 E 8 13 30.09 1019 4 6 N/A
8:58 pm 20:58 Clear 52 10.9 32 -0.1 47 47 ESE 5 7 30.05 1018 10 16 N/A
9:58 pm 21:58 Clear 51 10.7 32 -0.1 48 48 SE 5 7 30.06 1018 10 16 N/A
10:58 pm 22:58 Clear 45 7.1 32 0.1 61 61 SSW 5 7 30.06 1018 10 16 N/A
11:58 pm 23:58 Clear 44 6.8 32 -0.1 62 62 WSW 5 7 30.06 1018 10 16 N/A

Powered by AerisWeather